Time,TemperatureF,DewpointF,PressureIn,WindDirection,WindDirectionDegrees,WindSpeedMPH,WindSpeedGustMPH,Humidity,HourlyPrecipIn,Conditions,Clouds,dailyrainin,SolarRadiationWatts/m^2,SoftwareType,DateUTC
2013-06-16 00:03:00,59.2,55.9,28.82,NNW,335,0.0,0.0,89,0.00,CLR,FEW,0.00,0.0,WeatherDisplay:10.37,2013-06-15 22:03:00,
2013-06-16 00:08:00,59.0,55.8,28.85,North,10,0.0,0.0,89,0.00,CLR,FEW,0.00,0.0,WeatherDisplay:10.37,2013-06-15 22:08:00,
2013-06-16 00:13:00,59.0,56.1,28.85,North,10,0.0,0.0,90,0.00,CLR,FEW,0.00,0.0,WeatherDisplay:10.37,2013-06-15 22:13:00,
2013-06-16 00:18:00,59.0,56.1,28.85,North,10,0.0,0.0,90,0.00,CLR,FEW,0.00,0.0,WeatherDisplay:10.37,2013-06-15 22:18:00,
2013-06-16 00:23:00,58.8,55.9,28.85,NNE,15,0.0,0.0,90,0.00,CLR,FEW,0.00,0.0,WeatherDisplay:10.37,2013-06-15 22:23:00,
2013-06-16 00:28:00,58.8,55.9,28.85,NNE,15,0.0,0.0,90,0.00,CLR,FEW,0.00,0.0,WeatherDisplay:10.37,2013-06-15 22:28:00,
2013-06-16 00:33:00,58.6,55.7,28.85,North,10,0.0,0.0,90,0.00,CLR,FEW,0.00,0.0,WeatherDisplay:10.37,2013-06-15 22:33:00,
2013-06-16 00:38:00,58.5,55.8,28.85,NNE,15,0.0,0.0,91,0.00,CLR,FEW,0.00,0.0,WeatherDisplay:10.37,2013-06-15 22:38:00,
2013-06-16 00:43:00,58.5,55.8,28.85,NNE,15,0.0,0.0,91,0.00,CLR,FEW,0.00,0.0,WeatherDisplay:10.37,2013-06-15 22:43:00,
2013-06-16 00:48:00,58.3,55.7,28.85,North,10,0.0,0.0,91,0.00,CLR,FEW,0.00,0.0,WeatherDisplay:10.37,2013-06-15 22:48:00,
2013-06-16 00:53:00,58.3,55.7,28.85,North,10,0.0,0.0,91,0.00,CLR,FEW,0.00,0.0,WeatherDisplay:10.37,2013-06-15 22:53:00,
2013-06-16 00:58:00,58.5,55.8,28.85,WNW,300,0.0,0.0,91,0.00,CLR,FEW,0.00,0.0,WeatherDisplay:10.37,2013-06-15 22:58:00,
2013-06-16 01:03:00,58.5,55.8,28.85,West,275,0.0,0.0,91,0.00,CLR,FEW,0.00,0.0,WeatherDisplay:10.37,2013-06-15 23:03:00,
2013-06-16 01:08:00,58.6,56.0,28.85,West,275,0.0,0.0,91,0.00,CLR,FEW,0.00,0.0,WeatherDisplay:10.37,2013-06-15 23:08:00,
2013-06-16 01:13:00,58.5,55.8,28.85,North,5,0.0,0.0,91,0.00,CLR,FEW,0.00,0.0,WeatherDisplay:10.37,2013-06-15 23:13:00,
2013-06-16 01:18:00,58.5,55.8,28.85,North,5,0.0,0.0,91,0.00,CLR,FEW,0.00,0.0,WeatherDisplay:10.37,2013-06-15 23:18:00,
2013-06-16 01:23:00,58.3,55.7,28.85,North,5,0.0,0.0,91,0.00,CLR,FEW,0.00,0.0,WeatherDisplay:10.37,2013-06-15 23:23:00,
2013-06-16 01:28:00,57.9,55.3,28.85,NNW,340,0.0,0.0,91,0.00,CLR,FEW,0.00,0.0,WeatherDisplay:10.37,2013-06-15 23:28:00,
2013-06-16 01:33:00,57.6,55.0,28.85,North,5,0.0,0.0,91,0.00,CLR,FEW,0.00,0.0,WeatherDisplay:10.37,2013-06-15 23:33:00,
2013-06-16 01:38:00,57.6,55.3,28.85,NNE,30,0.0,0.0,92,0.00,CLR,FEW,0.00,0.0,WeatherDisplay:10.37,2013-06-15 23:38:00,
2013-06-16 01:43:00,57.6,55.3,28.85,NNE,30,0.0,0.0,92,0.00,CLR,FEW,0.00,0.0,WeatherDisplay:10.37,2013-06-15 23:43:00,
2013-06-16 01:48:00,57.4,55.1,28.85,NNE,30,0.0,0.0,92,0.00,CLR,FEW,0.00,0.0,WeatherDisplay:10.37,2013-06-15 23:48:00,
2013-06-16 01:53:00,57.2,54.9,28.85,NNE,30,0.0,0.0,92,0.00,CLR,FEW,0.00,0.0,WeatherDisplay:10.37,2013-06-15 23:53:00,
2013-06-16 01:58:00,57.2,54.9,28.85,NNE,30,0.0,0.0,92,0.00,CLR,FEW,0.00,0.0,WeatherDisplay:10.37,2013-06-15 23:58:00,
2013-06-16 02:03:00,57.2,55.2,28.85,ESE,105,0.0,0.0,93,0.00,CLR,FEW,0.00,0.0,WeatherDisplay:10.37,2013-06-16 00:03:00,
2013-06-16 02:08:00,57.6,55.6,28.85,SSE,150,0.0,0.0,93,0.00,CLR,FEW,0.00,0.0,WeatherDisplay:10.37,2013-06-16 00:08:00,
2013-06-16 02:13:00,57.6,55.6,28.85,SSE,150,0.0,0.0,93,0.00,CLR,FEW,0.00,0.0,WeatherDisplay:10.37,2013-06-16 00:13:00,
2013-06-16 02:18:00,57.6,55.6,28.85,SSE,150,0.0,0.0,93,0.00,CLR,FEW,0.00,0.0,WeatherDisplay:10.37,2013-06-16 00:18:00,
2013-06-16 02:23:00,57.6,55.6,28.85,SSE,150,0.0,0.0,93,0.00,CLR,FEW,0.00,0.0,WeatherDisplay:10.37,2013-06-16 00:23:00,
2013-06-16 02:28:00,57.6,55.6,28.85,SSE,150,0.0,0.0,93,0.00,CLR,FEW,0.00,0.0,WeatherDisplay:10.37,2013-06-16 00:28:00,
2013-06-16 02:33:00,57.6,55.6,28.85,SSE,150,0.0,0.0,93,0.00,CLR,FEW,0.00,0.0,WeatherDisplay:10.37,2013-06-16 00:33:00,
2013-06-16 02:38:00,57.4,55.1,28.85,SSE,150,0.0,0.0,92,0.00,CLR,FEW,0.00,0.0,WeatherDisplay:10.37,2013-06-16 00:38:00,
2013-06-16 02:43:00,57.4,55.1,28.85,SSE,150,0.0,0.0,92,0.00,CLR,FEW,0.00,0.0,WeatherDisplay:10.37,2013-06-16 00:43:00,
2013-06-16 02:48:00,57.2,55.2,28.85,SSE,150,0.0,0.0,93,0.00,CLR,FEW,0.00,0.0,WeatherDisplay:10.37,2013-06-16 00:48:00,
2013-06-16 02:53:00,57.4,55.4,28.85,SSE,150,0.0,0.0,93,0.00,CLR,FEW,0.00,0.0,WeatherDisplay:10.37,2013-06-16 00:53:00,
2013-06-16 02:58:00,57.2,55.2,28.85,SSE,150,0.0,0.0,93,0.00,CLR,FEW,0.00,0.0,WeatherDisplay:10.37,2013-06-16 00:58:00,
2013-06-16 03:03:00,57.2,55.2,28.85,SSE,150,0.0,0.0,93,0.00,CLR,FEW,0.00,0.0,WeatherDisplay:10.37,2013-06-16 01:03:00,
2013-06-16 03:08:00,57.4,55.4,28.85,SSE,150,0.0,0.0,93,0.00,CLR,FEW,0.00,0.0,WeatherDisplay:10.37,2013-06-16 01:08:00,
2013-06-16 03:13:00,57.4,55.4,28.85,SSE,150,0.0,0.0,93,0.00,CLR,FEW,0.00,0.0,WeatherDisplay:10.37,2013-06-16 01:13:00,
2013-06-16 03:18:00,57.4,55.4,28.85,SSE,150,0.0,0.0,93,0.00,CLR,FEW,0.00,0.0,WeatherDisplay:10.37,2013-06-16 01:18:00,
2013-06-16 03:23:00,57.2,55.2,28.85,SSE,150,0.0,0.0,93,0.00,CLR,FEW,0.00,0.0,WeatherDisplay:10.37,2013-06-16 01:23:00,
2013-06-16 03:28:00,57.2,55.2,28.85,SSE,150,0.0,0.0,93,0.00,CLR,FEW,0.00,0.0,WeatherDisplay:10.37,2013-06-16 01:28:00,
2013-06-16 03:33:00,57.0,55.0,28.85,SSE,150,0.0,0.0,93,0.00,CLR,FEW,0.00,0.0,WeatherDisplay:10.37,2013-06-16 01:33:00,
2013-06-16 03:38:00,56.8,54.8,28.85,SSE,150,0.0,0.0,93,0.00,CLR,FEW,0.00,0.0,WeatherDisplay:10.37,2013-06-16 01:38:00,
2013-06-16 03:43:00,56.8,54.8,28.85,SSE,150,0.0,0.0,93,0.00,CLR,FEW,0.00,0.0,WeatherDisplay:10.37,2013-06-16 01:43:00,
2013-06-16 03:48:00,56.8,54.8,28.85,SSE,150,0.0,0.0,93,0.00,CLR,FEW,0.00,0.0,WeatherDisplay:10.37,2013-06-16 01:48:00,
2013-06-16 03:53:00,56.7,54.7,28.85,SSE,150,0.0,0.0,93,0.00,CLR,FEW,0.00,0.0,WeatherDisplay:10.37,2013-06-16 01:53:00,
2013-06-16 03:58:00,56.3,54.3,28.85,SSE,150,0.0,0.0,93,0.00,CLR,FEW,0.00,0.0,WeatherDisplay:10.37,2013-06-16 01:58:00,
2013-06-16 04:03:00,56.3,54.3,28.85,SSE,150,0.0,0.0,93,0.00,CLR,FEW,0.00,0.0,WeatherDisplay:10.37,2013-06-16 02:03:00,
2013-06-16 04:08:00,56.1,54.4,28.88,SSE,150,0.0,0.0,94,0.00,CLR,FEW,0.00,0.0,WeatherDisplay:10.37,2013-06-16 02:08:00,
2013-06-16 04:13:00,55.9,54.2,28.88,SSE,150,0.0,0.0,94,0.00,CLR,FEW,0.00,0.0,WeatherDisplay:10.37,2013-06-16 02:13:00,
2013-06-16 04:18:00,55.9,54.2,28.88,SSE,150,0.0,0.0,94,0.00,CLR,FEW,0.00,0.0,WeatherDisplay:10.37,2013-06-16 02:18:00,
2013-06-16 04:23:00,55.6,53.9,28.88,SSE,150,0.0,0.0,94,0.00,OVC,FEW,0.00,0.0,WeatherDisplay:10.37,2013-06-16 02:23:00,
2013-06-16 04:28:00,55.4,53.7,28.88,SSE,150,0.0,0.0,94,0.00,OVC,FEW,0.00,0.0,WeatherDisplay:10.37,2013-06-16 02:28:00,
2013-06-16 04:33:00,55.0,53.3,28.88,SSE,150,0.0,0.0,94,0.00,OVC,FEW,0.00,0.0,WeatherDisplay:10.37,2013-06-16 02:33:00,
2013-06-16 04:38:00,55.0,53.3,28.88,SSE,150,0.0,0.0,94,0.00,OVC,FEW,0.00,0.0,WeatherDisplay:10.37,2013-06-16 02:38:00,
2013-06-16 04:43:00,55.0,53.3,28.88,SSE,150,0.0,0.0,94,0.00,OVC,FEW,0.00,0.0,WeatherDisplay:10.37,2013-06-16 02:43:00,
2013-06-16 04:48:00,54.9,53.2,28.88,SSE,150,0.0,0.0,94,0.00,OVC,FEW,0.00,0.0,WeatherDisplay:10.37,2013-06-16 02:48:00,
2013-06-16 04:53:00,54.7,53.0,28.88,SSE,150,0.0,0.0,94,0.00,OVC,FEW,0.00,0.0,WeatherDisplay:10.37,2013-06-16 02:53:00,
2013-06-16 04:58:00,55.2,53.5,28.88,North,355,0.0,0.0,94,0.00,OVC,FEW,0.00,0.0,WeatherDisplay:10.37,2013-06-16 02:58:00,
2013-06-16 05:03:00,55.0,53.3,28.88,NNW,340,0.0,0.0,94,0.00,OVC,FEW,0.00,0.0,WeatherDisplay:10.37,2013-06-16 03:03:00,
2013-06-16 05:08:00,54.9,53.5,28.88,NNW,340,0.0,0.0,95,0.00,OVC,FEW,0.00,0.0,WeatherDisplay:10.37,2013-06-16 03:08:00,
2013-06-16 05:13:00,54.7,53.3,28.88,NW,325,0.0,0.0,95,0.00,OVC,FEW,0.00,0.0,WeatherDisplay:10.37,2013-06-16 03:13:00,
2013-06-16 05:18:00,54.7,53.3,28.88,NW,325,0.0,0.0,95,0.00,OVC,FEW,0.00,0.0,WeatherDisplay:10.37,2013-06-16 03:18:00,
2013-06-16 05:23:00,54.7,53.3,28.88,NW,320,0.0,0.0,95,0.00,OVC,FEW,0.00,0.0,WeatherDisplay:10.37,2013-06-16 03:23:00,
2013-06-16 05:28:00,54.7,53.3,28.88,NW,325,0.0,0.0,95,0.00,OVC,FEW,0.00,0.0,WeatherDisplay:10.37,2013-06-16 03:28:00,
2013-06-16 05:33:00,54.9,53.5,28.88,NNW,335,0.0,0.0,95,0.00,OVC,FEW,0.00,0.0,WeatherDisplay:10.37,2013-06-16 03:33:00,
2013-06-16 05:38:00,54.9,53.5,28.88,NNW,335,0.0,0.0,95,0.00,OVC,FEW,0.00,0.0,WeatherDisplay:10.37,2013-06-16 03:38:00,
2013-06-16 05:43:00,54.9,53.5,28.88,NNW,335,0.0,0.0,95,0.00,OVC,FEW,0.00,0.0,WeatherDisplay:10.37,2013-06-16 03:43:00,
2013-06-16 05:48:00,55.4,54.0,28.88,NNW,345,0.0,0.0,95,0.00,OVC,FEW,0.00,0.0,WeatherDisplay:10.37,2013-06-16 03:48:00,
2013-06-16 05:53:00,55.8,54.3,28.88,NNW,345,0.0,0.0,95,0.00,OVC,FEW,0.00,0.0,WeatherDisplay:10.37,2013-06-16 03:53:00,
2013-06-16 05:58:00,55.9,54.5,28.88,North,355,0.0,0.0,95,0.00,OVC,FEW,0.00,0.0,WeatherDisplay:10.37,2013-06-16 03:58:00,
2013-06-16 06:01:00,55.9,54.5,28.88,North,355,0.0,0.0,95,0.00,OVC,FEW,0.00,0.0,WeatherDisplay:10.37,2013-06-16 04:01:00,
2013-06-16 06:02:00,56.1,54.7,28.88,North,355,0.0,0.0,95,0.00,OVC,FEW,0.00,0.0,WeatherDisplay:10.37,2013-06-16 04:02:00,
2013-06-16 06:04:00,56.1,54.7,28.88,North,355,0.0,0.0,95,0.00,OVC,FEW,0.00,0.0,WeatherDisplay:10.37,2013-06-16 04:04:00,
2013-06-16 06:09:00,56.5,55.1,28.88,NW,315,0.0,0.0,95,0.00,OVC,FEW,0.00,0.0,WeatherDisplay:10.37,2013-06-16 04:09:00,
2013-06-16 06:14:00,56.8,55.4,28.88,NNW,340,0.0,0.0,95,0.00,OVC,FEW,0.00,0.0,WeatherDisplay:10.37,2013-06-16 04:14:00,
2013-06-16 06:19:00,56.8,55.4,28.88,NNW,340,0.0,0.0,95,0.00,OVC,FEW,0.00,0.0,WeatherDisplay:10.37,2013-06-16 04:19:00,
2013-06-16 06:24:00,57.0,55.6,28.88,NNW,330,0.0,0.0,95,0.00,OVC,FEW,0.00,0.0,WeatherDisplay:10.37,2013-06-16 04:24:00,
2013-06-16 06:29:00,57.6,56.1,28.88,North,355,0.0,0.0,95,0.00,OVC,FEW,0.00,0.0,WeatherDisplay:10.37,2013-06-16 04:29:00,
2013-06-16 06:34:00,57.9,56.2,28.88,WNW,300,0.0,0.0,94,0.00,OVC,FEW,0.00,0.0,WeatherDisplay:10.37,2013-06-16 04:34:00,
2013-06-16 06:39:00,58.3,56.6,28.91,North,355,0.0,0.0,94,0.00,OVC,FEW,0.00,0.0,WeatherDisplay:10.37,2013-06-16 04:39:00,
2013-06-16 06:44:00,58.3,56.3,28.91,NE,35,0.0,0.0,93,0.00,OVC,FEW,0.00,0.0,WeatherDisplay:10.37,2013-06-16 04:44:00,
2013-06-16 06:49:00,58.3,56.3,28.91,NE,35,0.0,0.0,93,0.00,OVC,FEW,0.00,0.0,WeatherDisplay:10.37,2013-06-16 04:49:00,
2013-06-16 06:54:00,59.0,56.7,28.91,NNE,20,1.1,1.7,92,0.00,OVC,FEW,0.00,0.0,WeatherDisplay:10.37,2013-06-16 04:54:00,
2013-06-16 06:59:00,59.7,57.4,28.88,ENE,60,0.0,0.0,92,0.00,OVC,FEW,0.00,0.0,WeatherDisplay:10.37,2013-06-16 04:59:00,
2013-06-16 07:04:00,60.1,57.1,28.88,NNE,25,2.3,2.3,90,0.00,OVC,FEW,0.00,0.0,WeatherDisplay:10.37,2013-06-16 05:04:00,
2013-06-16 07:09:00,61.5,56.6,28.88,NW,315,2.3,2.3,84,0.00,OVC,FEW,0.00,0.0,WeatherDisplay:10.37,2013-06-16 05:09:00,
2013-06-16 07:14:00,62.1,56.8,28.88,NNW,330,1.1,1.7,83,0.00,OVC,FEW,0.00,0.0,WeatherDisplay:10.37,2013-06-16 05:14:00,
2013-06-16 07:19:00,62.1,56.8,28.88,NNW,330,1.1,1.7,83,0.00,OVC,FEW,0.00,0.0,WeatherDisplay:10.37,2013-06-16 05:19:00,
2013-06-16 07:24:00,62.6,57.7,28.88,NNW,330,1.1,1.1,84,0.00,OVC,FEW,0.00,0.0,WeatherDisplay:10.37,2013-06-16 05:24:00,
2013-06-16 07:29:00,63.1,57.6,28.88,NNW,345,2.3,2.3,82,0.00,OVC,FEW,0.00,0.0,WeatherDisplay:10.37,2013-06-16 05:29:00,
2013-06-16 07:34:00,64.2,57.9,28.88,NNE,15,3.5,3.5,80,0.00,OVC,FEW,0.00,0.0,WeatherDisplay:10.37,2013-06-16 05:34:00,
2013-06-16 07:39:00,64.4,57.4,28.88,NW,325,4.6,4.6,78,0.00,OVC,FEW,0.00,0.0,WeatherDisplay:10.37,2013-06-16 05:39:00,
2013-06-16 07:44:00,64.4,56.3,28.88,West,280,4.6,4.7,75,0.00,OVC,FEW,0.00,0.0,WeatherDisplay:10.37,2013-06-16 05:44:00,
2013-06-16 07:49:00,64.4,56.3,28.88,West,280,4.6,4.7,75,0.00,OVC,FEW,0.00,0.0,WeatherDisplay:10.37,2013-06-16 05:49:00,
2013-06-16 07:54:00,64.8,55.5,28.88,NW,325,2.3,2.3,72,0.00,OVC,FEW,0.00,0.0,WeatherDisplay:10.37,2013-06-16 05:54:00,
2013-06-16 07:59:00,64.8,55.5,28.91,NNE,20,5.8,5.8,72,0.00,OVC,FEW,0.00,0.0,WeatherDisplay:10.37,2013-06-16 05:59:00,
2013-06-16 08:04:00,64.8,55.5,28.91,NNE,20,5.8,5.8,72,0.00,OVC,FEW,0.00,0.0,WeatherDisplay:10.37,2013-06-16 06:04:00,
2013-06-16 08:09:00,65.5,55.8,28.91,North,350,4.6,4.6,71,0.00,OVC,FEW,0.00,0.0,WeatherDisplay:10.37,2013-06-16 06:09:00,
2013-06-16 08:14:00,64.8,54.7,28.91,NNW,330,6.9,6.9,70,0.00,OVC,FEW,0.00,0.0,WeatherDisplay:10.37,2013-06-16 06:14:00,
2013-06-16 08:19:00,64.8,54.7,28.91,NNW,330,6.9,6.9,70,0.00,OVC,FEW,0.00,0.0,WeatherDisplay:10.37,2013-06-16 06:19:00,
2013-06-16 08:24:00,64.8,54.7,28.91,NNW,345,4.6,4.6,70,0.00,OVC,FEW,0.00,0.0,WeatherDisplay:10.37,2013-06-16 06:24:00,
2013-06-16 08:29:00,65.1,55.1,28.91,NNW,345,3.5,3.8,70,0.00,OVC,FEW,0.00,0.0,WeatherDisplay:10.37,2013-06-16 06:29:00,
2013-06-16 08:34:00,65.1,54.7,28.91,NNW,340,4.6,4.6,69,0.00,OVC,FEW,0.00,0.0,WeatherDisplay:10.37,2013-06-16 06:34:00,
2013-06-16 08:39:00,66.6,55.3,28.91,North,355,4.6,4.9,67,0.00,OVC,FEW,0.00,0.0,WeatherDisplay:10.37,2013-06-16 06:39:00,
2013-06-16 08:44:00,67.3,54.7,28.91,NW,310,5.8,5.8,64,0.00,OVC,FEW,0.00,0.0,WeatherDisplay:10.37,2013-06-16 06:44:00,
2013-06-16 08:49:00,67.3,54.7,28.91,NW,310,5.8,5.8,64,0.00,OVC,FEW,0.00,0.0,WeatherDisplay:10.37,2013-06-16 06:49:00,
2013-06-16 08:54:00,67.1,53.6,28.91,NNE,30,6.9,6.9,62,0.00,OVC,FEW,0.00,0.0,WeatherDisplay:10.37,2013-06-16 06:54:00,
2013-06-16 08:59:00,67.1,53.6,28.91,NE,35,5.8,5.8,62,0.00,OVC,FEW,0.00,0.0,WeatherDisplay:10.37,2013-06-16 06:59:00,
2013-06-16 09:04:00,66.9,53.0,28.91,NW,325,8.1,8.1,61,0.00,OVC,FEW,0.00,0.0,WeatherDisplay:10.37,2013-06-16 07:04:00,
2013-06-16 09:09:00,67.3,52.9,28.91,NNW,340,8.1,8.1,60,0.00,OVC,FEW,0.00,0.0,WeatherDisplay:10.37,2013-06-16 07:09:00,
2013-06-16 09:14:00,68.2,53.3,28.91,NW,305,4.6,4.9,59,0.00,OVC,FEW,0.00,0.0,WeatherDisplay:10.37,2013-06-16 07:14:00,
2013-06-16 09:19:00,68.2,53.3,28.91,NW,305,4.6,4.9,59,0.00,OVC,FEW,0.00,0.0,WeatherDisplay:10.37,2013-06-16 07:19:00,
2013-06-16 09:24:00,68.2,53.3,28.91,NNE,15,4.6,5.1,59,0.00,OVC,FEW,0.00,0.0,WeatherDisplay:10.37,2013-06-16 07:24:00,
2013-06-16 09:29:00,68.4,53.5,28.91,North,355,6.9,7.0,59,0.00,OVC,FEW,0.00,0.0,WeatherDisplay:10.37,2013-06-16 07:29:00,
2013-06-16 09:34:00,68.4,53.0,28.91,North,10,5.8,5.8,58,0.00,OVC,FEW,0.00,0.0,WeatherDisplay:10.37,2013-06-16 07:34:00,
2013-06-16 09:39:00,69.1,53.7,28.91,NW,315,4.6,4.6,58,0.00,OVC,FEW,0.00,0.0,WeatherDisplay:10.37,2013-06-16 07:39:00,
2013-06-16 09:44:00,69.4,53.5,28.91,West,280,4.6,4.6,57,0.00,OVC,FEW,0.00,0.0,WeatherDisplay:10.37,2013-06-16 07:44:00,
2013-06-16 09:49:00,69.4,53.5,28.91,West,280,4.6,4.6,57,0.00,OVC,FEW,0.00,0.0,WeatherDisplay:10.37,2013-06-16 07:49:00,
2013-06-16 09:54:00,69.1,52.2,28.91,NE,50,8.1,8.1,55,0.00,OVC,FEW,0.00,0.0,WeatherDisplay:10.37,2013-06-16 07:54:00,
2013-06-16 09:59:00,69.1,52.2,28.91,NNW,340,8.1,8.3,55,0.00,OVC,FEW,0.00,0.0,WeatherDisplay:10.37,2013-06-16 07:59:00,
2013-06-16 10:04:00,69.8,53.4,28.91,NE,50,4.6,4.9,56,0.00,OVC,FEW,0.00,0.0,WeatherDisplay:10.37,2013-06-16 08:04:00,
2013-06-16 10:09:00,70.0,52.1,28.91,NNW,345,6.9,6.9,53,0.00,OVC,FEW,0.00,0.0,WeatherDisplay:10.37,2013-06-16 08:09:00,
2013-06-16 10:14:00,70.5,53.6,28.91,NW,325,4.6,4.6,55,0.00,OVC,FEW,0.00,0.0,WeatherDisplay:10.37,2013-06-16 08:14:00,
2013-06-16 10:19:00,70.5,53.6,28.91,NW,325,4.6,4.6,55,0.00,OVC,FEW,0.00,0.0,WeatherDisplay:10.37,2013-06-16 08:19:00,
2013-06-16 10:24:00,70.2,52.7,28.91,ENE,75,6.9,7.1,54,0.00,OVC,FEW,0.00,0.0,WeatherDisplay:10.37,2013-06-16 08:24:00,
2013-06-16 10:29:00,70.2,52.7,28.91,West,275,9.2,9.8,54,0.00,OVC,FEW,0.00,0.0,WeatherDisplay:10.37,2013-06-16 08:29:00,
2013-06-16 10:34:00,70.7,53.2,28.91,West,270,8.1,8.1,54,0.00,OVC,FEW,0.00,0.0,WeatherDisplay:10.37,2013-06-16 08:34:00,
2013-06-16 10:39:00,70.9,52.9,28.91,West,270,6.9,7.3,53,0.00,OVC,FEW,0.00,0.0,WeatherDisplay:10.37,2013-06-16 08:39:00,
2013-06-16 10:44:00,70.3,52.9,28.91,North,0,8.1,8.1,54,0.00,OVC,FEW,0.00,0.0,WeatherDisplay:10.37,2013-06-16 08:44:00,
2013-06-16 10:50:00,70.3,52.9,28.91,North,0,8.1,8.1,54,0.00,OVC,FEW,0.00,0.0,WeatherDisplay:10.37,2013-06-16 08:50:00,
2013-06-16 10:55:00,71.2,53.2,28.91,North,355,5.8,5.8,53,0.00,OVC,FEW,0.00,0.0,WeatherDisplay:10.37,2013-06-16 08:55:00,
2013-06-16 11:00:00,71.1,53.6,28.91,NNE,30,6.9,6.9,54,0.00,OVC,FEW,0.00,0.0,WeatherDisplay:10.37,2013-06-16 09:00:00,
2013-06-16 11:05:00,71.4,53.4,28.91,NNW,345,6.9,6.9,53,0.00,OVC,FEW,0.00,0.0,WeatherDisplay:10.37,2013-06-16 09:05:00,
2013-06-16 11:10:00,71.2,54.2,28.91,North,350,4.6,4.6,55,0.00,OVC,FEW,0.00,0.0,WeatherDisplay:10.37,2013-06-16 09:10:00,
2013-06-16 11:15:00,72.0,54.9,28.91,NW,310,5.8,5.8,55,0.00,OVC,FEW,0.00,0.0,WeatherDisplay:10.37,2013-06-16 09:15:00,
2013-06-16 11:20:00,72.0,54.9,28.91,NW,310,5.8,5.8,55,0.00,OVC,FEW,0.00,0.0,WeatherDisplay:10.37,2013-06-16 09:20:00,
2013-06-16 11:25:00,71.6,54.6,28.91,NNW,340,8.1,8.1,55,0.00,OVC,FEW,0.00,0.0,WeatherDisplay:10.37,2013-06-16 09:25:00,
2013-06-16 11:30:00,72.1,54.6,28.91,NW,315,4.6,4.7,54,0.00,OVC,FEW,0.00,0.0,WeatherDisplay:10.37,2013-06-16 09:30:00,
2013-06-16 11:35:00,71.8,54.7,28.91,NE,40,8.1,8.3,55,0.00,OVC,FEW,0.00,0.0,WeatherDisplay:10.37,2013-06-16 09:35:00,
2013-06-16 11:40:00,72.7,55.1,28.91,North,0,4.6,4.7,54,0.00,OVC,FEW,0.00,0.0,WeatherDisplay:10.37,2013-06-16 09:40:00,
2013-06-16 11:45:00,72.5,56.4,28.91,NW,310,8.1,8.1,57,0.00,OVC,FEW,0.00,0.0,WeatherDisplay:10.37,2013-06-16 09:45:00,
2013-06-16 11:50:00,72.5,56.4,28.91,NW,310,8.1,8.1,57,0.00,OVC,FEW,0.00,0.0,WeatherDisplay:10.37,2013-06-16 09:50:00,
2013-06-16 11:55:00,72.7,55.1,28.91,WNW,300,6.9,6.9,54,0.00,OVC,FEW,0.00,0.0,WeatherDisplay:10.37,2013-06-16 09:55:00,
2013-06-16 12:00:00,73.6,55.4,28.88,North,350,10.4,10.4,53,0.00,OVC,FEW,0.00,0.0,WeatherDisplay:10.37,2013-06-16 10:00:00,
2013-06-16 12:05:00,73.8,56.1,28.88,North,350,6.9,6.9,54,0.00,OVC,FEW,0.00,0.0,WeatherDisplay:10.37,2013-06-16 10:05:00,
2013-06-16 12:10:00,73.2,54.5,28.91,NE,45,8.1,8.3,52,0.00,OVC,FEW,0.00,0.0,WeatherDisplay:10.37,2013-06-16 10:10:00,
2013-06-16 12:15:00,73.9,56.2,28.91,NNE,30,5.8,6.0,54,0.00,OVC,FEW,0.00,0.0,WeatherDisplay:10.37,2013-06-16 10:15:00,
2013-06-16 12:20:00,73.9,56.2,28.91,NNE,30,5.8,6.0,54,0.00,OVC,FEW,0.00,0.0,WeatherDisplay:10.37,2013-06-16 10:20:00,
2013-06-16 12:25:00,73.8,56.6,28.91,WNW,300,13.8,14.1,55,0.00,OVC,FEW,0.00,0.0,WeatherDisplay:10.37,2013-06-16 10:25:00,
2013-06-16 12:30:00,73.9,57.3,28.91,East,85,11.5,11.5,56,0.00,OVC,FEW,0.00,0.0,WeatherDisplay:10.37,2013-06-16 10:30:00,
2013-06-16 12:35:00,73.9,57.3,28.91,East,85,11.5,11.5,56,0.00,OVC,FEW,0.00,0.0,WeatherDisplay:10.37,2013-06-16 10:35:00,
2013-06-16 12:40:00,73.8,56.6,28.88,North,5,8.1,8.3,55,0.00,OVC,FEW,0.00,0.0,WeatherDisplay:10.37,2013-06-16 10:40:00,
2013-06-16 12:45:00,73.8,56.1,28.88,NNE,20,12.7,12.8,54,0.00,OVC,FEW,0.00,0.0,WeatherDisplay:10.37,2013-06-16 10:45:00,
2013-06-16 12:50:00,73.8,56.1,28.88,NNE,20,12.7,12.8,54,0.00,OVC,FEW,0.00,0.0,WeatherDisplay:10.37,2013-06-16 10:50:00,
2013-06-16 12:55:00,74.3,56.6,28.88,NNE,30,8.1,8.1,54,0.00,OVC,FEW,0.00,0.0,WeatherDisplay:10.37,2013-06-16 10:55:00,
2013-06-16 13:00:00,74.5,56.7,28.88,North,5,6.9,6.9,54,0.00,OVC,FEW,0.00,0.0,WeatherDisplay:10.37,2013-06-16 11:00:00,
2013-06-16 13:05:00,74.7,56.9,28.88,NNW,335,6.9,7.0,54,0.00,OVC,FEW,0.00,0.0,WeatherDisplay:10.37,2013-06-16 11:05:00,
2013-06-16 13:10:00,74.8,57.1,28.88,North,0,8.1,8.5,54,0.00,OVC,FEW,0.00,0.0,WeatherDisplay:10.37,2013-06-16 11:10:00,
2013-06-16 13:15:00,75.6,56.7,28.88,West,260,8.1,8.1,52,0.00,OVC,FEW,0.00,0.0,WeatherDisplay:10.37,2013-06-16 11:15:00,
2013-06-16 13:20:00,75.6,56.7,28.88,West,260,8.1,8.1,52,0.00,OVC,FEW,0.00,0.0,WeatherDisplay:10.37,2013-06-16 11:20:00,
2013-06-16 13:25:00,75.0,56.2,28.88,ENE,70,9.2,9.6,52,0.00,OVC,FEW,0.00,0.0,WeatherDisplay:10.37,2013-06-16 11:25:00,
2013-06-16 13:30:00,74.7,56.4,28.88,North,5,5.8,5.8,53,0.00,OVC,FEW,0.00,0.0,WeatherDisplay:10.37,2013-06-16 11:30:00,
2013-06-16 13:35:00,75.7,56.9,28.88,NNE,25,4.6,4.6,52,0.00,OVC,FEW,0.00,0.0,WeatherDisplay:10.37,2013-06-16 11:35:00,
2013-06-16 13:40:00,75.2,55.8,28.88,NE,50,9.2,9.2,51,0.00,OVC,FEW,0.00,0.0,WeatherDisplay:10.37,2013-06-16 11:40:00,
2013-06-16 13:45:00,75.7,57.9,28.88,NNE,20,5.8,5.8,54,0.00,OVC,FEW,0.00,0.0,WeatherDisplay:10.37,2013-06-16 11:45:00,
2013-06-16 13:50:00,75.7,57.9,28.88,NNE,20,5.8,5.8,54,0.00,OVC,FEW,0.00,0.0,WeatherDisplay:10.37,2013-06-16 11:50:00,
2013-06-16 13:55:00,75.6,55.1,28.88,NNW,340,8.1,8.3,49,0.00,OVC,FEW,0.00,0.0,WeatherDisplay:10.37,2013-06-16 11:55:00,
2013-06-16 14:00:00,75.6,55.1,28.88,North,355,9.2,9.2,49,0.00,OVC,FEW,0.00,0.0,WeatherDisplay:10.37,2013-06-16 12:00:00,
2013-06-16 14:05:00,76.1,55.0,28.88,West,260,8.1,8.1,48,0.00,OVC,FEW,0.00,0.0,WeatherDisplay:10.37,2013-06-16 12:05:00,
2013-06-16 14:10:00,76.5,55.3,28.88,NE,50,4.6,4.6,48,0.00,OVC,FEW,0.00,0.0,WeatherDisplay:10.37,2013-06-16 12:10:00,
2013-06-16 14:15:00,76.6,54.3,28.88,NNE,15,8.1,8.1,46,0.00,OVC,FEW,0.00,0.0,WeatherDisplay:10.37,2013-06-16 12:15:00,
2013-06-16 14:20:00,76.6,54.3,28.88,NNE,15,8.1,8.1,46,0.00,OVC,FEW,0.00,0.0,WeatherDisplay:10.37,2013-06-16 12:20:00,
2013-06-16 14:25:00,76.1,56.1,28.88,North,5,13.8,13.8,50,0.00,OVC,FEW,0.00,0.0,WeatherDisplay:10.37,2013-06-16 12:25:00,
2013-06-16 14:30:00,76.1,57.2,28.88,NNE,25,11.5,11.5,52,0.00,OVC,FEW,0.00,0.0,WeatherDisplay:10.37,2013-06-16 12:30:00,
2013-06-16 14:35:00,75.7,55.8,28.88,NNE,25,8.1,8.3,50,0.00,OVC,FEW,0.00,0.0,WeatherDisplay:10.37,2013-06-16 12:35:00,
2013-06-16 14:40:00,76.3,55.7,28.85,NNE,25,8.1,8.1,49,0.00,OVC,FEW,0.00,0.0,WeatherDisplay:10.37,2013-06-16 12:40:00,
2013-06-16 14:45:00,76.1,55.0,28.85,North,350,12.7,13.0,48,0.00,OVC,FEW,0.00,0.0,WeatherDisplay:10.37,2013-06-16 12:45:00,
2013-06-16 14:50:00,76.1,55.0,28.85,North,350,12.7,13.0,48,0.00,OVC,FEW,0.00,0.0,WeatherDisplay:10.37,2013-06-16 12:50:00,
2013-06-16 14:55:00,76.1,55.0,28.85,NE,35,9.2,9.2,48,0.00,OVC,FEW,0.00,0.0,WeatherDisplay:10.37,2013-06-16 12:55:00,
2013-06-16 15:00:00,77.0,56.4,28.85,NW,325,6.9,7.1,49,0.00,OVC,FEW,0.00,0.0,WeatherDisplay:10.37,2013-06-16 13:00:00,
2013-06-16 15:05:00,77.5,55.1,28.85,North,5,5.8,5.8,46,0.00,OVC,FEW,0.00,0.0,WeatherDisplay:10.37,2013-06-16 13:05:00,
2013-06-16 15:10:00,76.8,55.1,28.85,North,5,11.5,11.5,47,0.00,OVC,FEW,0.00,0.0,WeatherDisplay:10.37,2013-06-16 13:10:00,
2013-06-16 15:15:00,77.0,54.6,28.85,NNE,25,8.1,8.5,46,0.00,OVC,FEW,0.00,0.0,WeatherDisplay:10.37,2013-06-16 13:15:00,
2013-06-16 15:20:00,77.0,54.6,28.85,NNE,25,8.1,8.5,46,0.00,OVC,FEW,0.00,0.0,WeatherDisplay:10.37,2013-06-16 13:20:00,
2013-06-16 15:25:00,76.3,55.1,28.85,NE,55,6.9,6.9,48,0.00,OVC,FEW,0.00,0.0,WeatherDisplay:10.37,2013-06-16 13:25:00,
2013-06-16 15:30:00,76.6,55.5,28.85,ENE,65,5.8,6.0,48,0.00,OVC,FEW,0.00,0.0,WeatherDisplay:10.37,2013-06-16 13:30:00,
2013-06-16 15:35:00,77.0,55.2,28.85,North,10,8.1,8.5,47,0.00,OVC,FEW,0.00,0.0,WeatherDisplay:10.37,2013-06-16 13:35:00,
2013-06-16 15:40:00,78.3,55.8,28.85,WNW,300,4.6,4.6,46,0.00,OVC,FEW,0.00,0.0,WeatherDisplay:10.37,2013-06-16 13:40:00,
2013-06-16 15:45:00,78.4,55.9,28.85,North,10,5.8,5.8,46,0.00,OVC,FEW,0.00,0.0,WeatherDisplay:10.37,2013-06-16 13:45:00,
2013-06-16 15:50:00,78.4,55.9,28.85,North,10,5.8,5.8,46,0.00,OVC,FEW,0.00,0.0,WeatherDisplay:10.37,2013-06-16 13:50:00,
2013-06-16 15:55:00,78.4,56.5,28.85,NE,50,11.5,11.5,47,0.00,OVC,FEW,0.00,0.0,WeatherDisplay:10.37,2013-06-16 13:55:00,
2013-06-16 16:00:00,79.3,57.4,28.85,NE,50,4.6,4.6,47,0.00,OVC,FEW,0.00,0.0,WeatherDisplay:10.37,2013-06-16 14:00:00,
2013-06-16 16:05:00,78.3,56.4,28.85,WNW,300,8.1,8.1,47,0.00,OVC,FEW,0.00,0.0,WeatherDisplay:10.37,2013-06-16 14:05:00,
2013-06-16 16:10:00,77.2,54.2,28.85,NE,50,9.2,9.2,45,0.00,OVC,FEW,0.00,0.0,WeatherDisplay:10.37,2013-06-16 14:10:00,
2013-06-16 16:15:00,78.4,55.9,28.85,NE,50,5.8,6.2,46,0.00,OVC,FEW,0.00,0.0,WeatherDisplay:10.37,2013-06-16 14:15:00,
2013-06-16 16:20:00,78.4,55.9,28.85,NE,50,5.8,6.2,46,0.00,OVC,FEW,0.00,0.0,WeatherDisplay:10.37,2013-06-16 14:20:00,
2013-06-16 16:25:00,78.1,56.2,28.85,North,350,6.9,7.1,47,0.00,OVC,FEW,0.00,0.0,WeatherDisplay:10.37,2013-06-16 14:25:00,
2013-06-16 16:30:00,78.4,55.3,28.85,NW,305,5.8,6.0,45,0.00,OVC,FEW,0.00,0.0,WeatherDisplay:10.37,2013-06-16 14:30:00,
2013-06-16 16:35:00,78.3,54.6,28.85,NNE,20,6.9,7.1,44,0.00,OVC,FEW,0.00,0.0,WeatherDisplay:10.37,2013-06-16 14:35:00,
2013-06-16 16:40:00,78.3,54.6,28.85,NNE,20,6.9,7.1,44,0.00,OVC,FEW,0.00,0.0,WeatherDisplay:10.37,2013-06-16 14:40:00,
2013-06-16 16:45:00,77.9,54.8,28.85,ENE,65,5.8,5.8,45,0.00,OVC,FEW,0.00,0.0,WeatherDisplay:10.37,2013-06-16 14:45:00,
2013-06-16 16:50:00,77.9,54.8,28.85,ENE,65,5.8,5.8,45,0.00,OVC,FEW,0.00,0.0,WeatherDisplay:10.37,2013-06-16 14:50:00,
2013-06-16 16:55:00,78.1,55.6,28.85,NE,35,8.1,8.1,46,0.00,OVC,FEW,0.00,0.0,WeatherDisplay:10.37,2013-06-16 14:55:00,
2013-06-16 17:00:00,78.4,56.5,28.85,NNE,30,8.1,8.1,47,0.00,OVC,FEW,0.00,0.0,WeatherDisplay:10.37,2013-06-16 15:00:00,
2013-06-16 17:05:00,79.0,55.2,28.85,North,350,5.8,5.8,44,0.00,OVC,FEW,0.00,0.0,WeatherDisplay:10.37,2013-06-16 15:05:00,
2013-06-16 17:10:00,78.8,56.9,28.85,NE,50,5.8,5.8,47,0.00,OVC,FEW,0.00,0.0,WeatherDisplay:10.37,2013-06-16 15:10:00,
2013-06-16 17:15:00,77.2,55.4,28.85,NE,40,6.9,6.9,47,0.00,OVC,FEW,0.00,0.0,WeatherDisplay:10.37,2013-06-16 15:15:00,
2013-06-16 17:20:00,77.2,55.4,28.85,NE,40,6.9,6.9,47,0.00,OVC,FEW,0.00,0.0,WeatherDisplay:10.37,2013-06-16 15:20:00,
2013-06-16 17:25:00,77.4,56.1,28.85,ENE,65,9.2,9.2,48,0.00,OVC,FEW,0.00,0.0,WeatherDisplay:10.37,2013-06-16 15:25:00,
2013-06-16 17:30:00,78.1,56.2,28.82,NE,55,5.8,6.2,47,0.00,OVC,FEW,0.00,0.0,WeatherDisplay:10.37,2013-06-16 15:30:00,
2013-06-16 17:35:00,78.4,57.1,28.82,NNE,15,2.3,2.3,48,0.00,OVC,FEW,0.00,0.0,WeatherDisplay:10.37,2013-06-16 15:35:00,
2013-06-16 17:40:00,78.6,58.4,28.85,NE,45,4.6,4.6,50,0.00,OVC,FEW,0.00,0.0,WeatherDisplay:10.37,2013-06-16 15:40:00,
2013-06-16 17:45:00,79.0,57.0,28.85,NE,35,6.9,6.9,47,0.00,OVC,FEW,0.00,0.0,WeatherDisplay:10.37,2013-06-16 15:45:00,
2013-06-16 17:50:00,78.1,53.8,28.85,ENE,60,11.5,11.5,43,0.00,OVC,FEW,0.00,0.0,WeatherDisplay:10.37,2013-06-16 15:50:00,
2013-06-16 17:55:00,78.1,53.8,28.85,ENE,60,11.5,11.5,43,0.00,OVC,FEW,0.00,0.0,WeatherDisplay:10.37,2013-06-16 15:55:00,
2013-06-16 18:00:00,77.7,54.7,28.85,NE,55,6.9,6.9,45,0.00,OVC,FEW,0.00,0.0,WeatherDisplay:10.37,2013-06-16 16:00:00,
2013-06-16 18:05:00,78.3,55.2,28.85,NNE,30,6.9,7.0,45,0.00,OVC,FEW,0.00,0.0,WeatherDisplay:10.37,2013-06-16 16:05:00,
2013-06-16 18:10:00,78.1,53.8,28.85,ENE,70,11.5,11.5,43,0.00,OVC,FEW,0.00,0.0,WeatherDisplay:10.37,2013-06-16 16:10:00,
2013-06-16 18:15:00,78.4,55.3,28.85,NNE,25,8.1,8.1,45,0.00,OVC,FEW,0.00,0.0,WeatherDisplay:10.37,2013-06-16 16:15:00,
2013-06-16 18:20:00,78.3,54.6,28.85,North,355,5.8,5.8,44,0.00,OVC,FEW,0.00,0.0,WeatherDisplay:10.37,2013-06-16 16:20:00,
2013-06-16 18:25:00,78.3,54.6,28.85,North,355,5.8,5.8,44,0.00,OVC,FEW,0.00,0.0,WeatherDisplay:10.37,2013-06-16 16:25:00,
2013-06-16 18:30:00,78.1,54.4,28.82,NNW,340,8.1,8.1,44,0.00,OVC,FEW,0.00,0.0,WeatherDisplay:10.37,2013-06-16 16:30:00,
2013-06-16 18:35:00,78.4,55.3,28.82,NW,325,4.6,4.9,45,0.00,OVC,FEW,0.00,0.0,WeatherDisplay:10.37,2013-06-16 16:35:00,
2013-06-16 18:40:00,77.9,54.2,28.85,NNE,30,8.1,8.1,44,0.00,OVC,FEW,0.00,0.0,WeatherDisplay:10.37,2013-06-16 16:40:00,
2013-06-16 18:45:00,77.9,53.6,28.85,NE,55,5.8,5.8,43,0.00,OVC,FEW,0.00,0.0,WeatherDisplay:10.37,2013-06-16 16:45:00,
2013-06-16 18:50:00,78.1,54.4,28.85,ENE,70,5.8,5.8,44,0.00,OVC,FEW,0.00,0.0,WeatherDisplay:10.37,2013-06-16 16:50:00,
2013-06-16 18:55:00,78.1,54.4,28.85,ENE,70,5.8,5.8,44,0.00,OVC,FEW,0.00,0.0,WeatherDisplay:10.37,2013-06-16 16:55:00,
2013-06-16 19:00:00,77.7,55.3,28.85,North,10,5.8,6.2,46,0.00,OVC,FEW,0.00,0.0,WeatherDisplay:10.37,2013-06-16 17:00:00,
2013-06-16 19:05:00,77.5,54.5,28.85,NNE,25,6.9,6.9,45,0.00,OVC,FEW,0.00,0.0,WeatherDisplay:10.37,2013-06-16 17:05:00,
2013-06-16 19:10:00,77.7,54.7,28.85,ENE,65,4.6,4.6,45,0.00,OVC,FEW,0.00,0.0,WeatherDisplay:10.37,2013-06-16 17:10:00,
2013-06-16 19:15:00,78.1,55.6,28.85,NNE,15,2.3,2.3,46,0.00,OVC,FEW,0.00,0.0,WeatherDisplay:10.37,2013-06-16 17:15:00,
2013-06-16 19:20:00,78.3,56.4,28.85,NE,35,3.5,3.8,47,0.00,OVC,FEW,0.00,0.0,WeatherDisplay:10.37,2013-06-16 17:20:00,
2013-06-16 19:25:00,78.3,56.4,28.85,NE,35,3.5,3.8,47,0.00,OVC,FEW,0.00,0.0,WeatherDisplay:10.37,2013-06-16 17:25:00,
2013-06-16 19:30:00,77.9,56.0,28.82,NW,320,3.5,3.5,47,0.00,OVC,FEW,0.00,0.0,WeatherDisplay:10.37,2013-06-16 17:30:00,
2013-06-16 19:35:00,77.4,56.1,28.82,ENE,60,3.5,3.5,48,0.00,OVC,FEW,0.00,0.0,WeatherDisplay:10.37,2013-06-16 17:35:00,
2013-06-16 19:40:00,77.0,55.2,28.82,ENE,60,2.3,2.3,47,0.00,OVC,FEW,0.00,0.0,WeatherDisplay:10.37,2013-06-16 17:40:00,
2013-06-16 19:45:00,77.2,55.4,28.82,ENE,65,2.3,2.3,47,0.00,OVC,FEW,0.00,0.0,WeatherDisplay:10.37,2013-06-16 17:45:00,
2013-06-16 19:50:00,77.0,55.8,28.82,NE,45,0.0,0.0,48,0.00,OVC,FEW,0.00,0.0,WeatherDisplay:10.37,2013-06-16 17:50:00,
2013-06-16 19:55:00,77.0,55.8,28.82,NE,45,0.0,0.0,48,0.00,OVC,FEW,0.00,0.0,WeatherDisplay:10.37,2013-06-16 17:55:00,
2013-06-16 20:00:00,77.7,55.9,28.85,NNE,15,0.0,0.0,47,0.00,OVC,FEW,0.00,0.0,WeatherDisplay:10.37,2013-06-16 18:00:00,
2013-06-16 20:05:00,78.4,56.5,28.85,NNE,15,0.0,0.0,47,0.00,OVC,FEW,0.00,0.0,WeatherDisplay:10.37,2013-06-16 18:05:00,
2013-06-16 20:10:00,79.2,58.9,28.85,NNE,15,0.0,0.0,50,0.00,OVC,FEW,0.00,0.0,WeatherDisplay:10.37,2013-06-16 18:10:00,
2013-06-16 20:15:00,77.9,57.2,28.85,NNE,20,0.0,0.0,49,0.00,OVC,FEW,0.00,0.0,WeatherDisplay:10.37,2013-06-16 18:15:00,
2013-06-16 20:20:00,76.6,56.6,28.85,NNE,25,0.0,0.0,50,0.00,OVC,FEW,0.00,0.0,WeatherDisplay:10.37,2013-06-16 18:20:00,
2013-06-16 20:25:00,76.6,56.6,28.85,NNE,25,0.0,0.0,50,0.00,OVC,FEW,0.00,0.0,WeatherDisplay:10.37,2013-06-16 18:25:00,
2013-06-16 20:30:00,74.3,55.0,28.85,NNE,25,0.0,0.0,51,0.00,OVC,FEW,0.00,0.0,WeatherDisplay:10.37,2013-06-16 18:30:00,
2013-06-16 20:35:00,71.2,55.2,28.85,NE,55,0.0,0.0,57,0.00,OVC,FEW,0.00,0.0,WeatherDisplay:10.37,2013-06-16 18:35:00,
2013-06-16 20:40:00,70.3,54.9,28.85,NE,55,0.0,0.0,58,0.00,OVC,FEW,0.00,0.0,WeatherDisplay:10.37,2013-06-16 18:40:00,
2013-06-16 20:45:00,68.4,55.3,28.85,NE,55,0.0,0.0,63,0.00,OVC,FEW,0.00,0.0,WeatherDisplay:10.37,2013-06-16 18:45:00,
2013-06-16 20:50:00,67.5,55.7,28.85,NE,55,0.0,0.0,66,0.00,OVC,FEW,0.00,0.0,WeatherDisplay:10.37,2013-06-16 18:50:00,
2013-06-16 20:55:00,67.5,55.7,28.85,NE,55,0.0,0.0,66,0.00,OVC,FEW,0.00,0.0,WeatherDisplay:10.37,2013-06-16 18:55:00,
2013-06-16 21:00:00,66.9,56.4,28.85,NE,55,0.0,0.0,69,0.00,OVC,FEW,0.00,0.0,WeatherDisplay:10.37,2013-06-16 19:00:00,
2013-06-16 21:05:00,66.2,56.1,28.85,NE,55,0.0,0.0,70,0.00,OVC,FEW,0.00,0.0,WeatherDisplay:10.37,2013-06-16 19:05:00,
2013-06-16 21:10:00,65.5,56.2,28.85,NE,55,0.0,0.0,72,0.00,OVC,FEW,0.00,0.0,WeatherDisplay:10.37,2013-06-16 19:10:00,
2013-06-16 21:15:00,64.8,56.3,28.85,NE,55,0.0,0.0,74,0.00,OVC,FEW,0.00,0.0,WeatherDisplay:10.37,2013-06-16 19:15:00,
2013-06-16 21:20:00,64.6,56.1,28.85,NE,55,0.0,0.0,74,0.00,OVC,FEW,0.00,0.0,WeatherDisplay:10.37,2013-06-16 19:20:00,
2013-06-16 21:25:00,64.6,56.1,28.85,NE,55,0.0,0.0,74,0.00,OVC,FEW,0.00,0.0,WeatherDisplay:10.37,2013-06-16 19:25:00,
2013-06-16 21:30:00,64.6,55.7,28.85,NE,55,0.0,0.0,73,0.00,OVC,FEW,0.00,0.0,WeatherDisplay:10.37,2013-06-16 19:30:00,
2013-06-16 21:35:00,64.0,56.0,28.85,NE,55,0.0,0.0,75,0.00,OVC,FEW,0.00,0.0,WeatherDisplay:10.37,2013-06-16 19:35:00,
2013-06-16 21:40:00,63.0,55.3,28.88,NE,55,0.0,0.0,76,0.00,OVC,FEW,0.00,0.0,WeatherDisplay:10.37,2013-06-16 19:40:00,
2013-06-16 21:45:00,62.4,55.1,28.88,NE,55,0.0,0.0,77,0.00,CLR,FEW,0.00,0.0,WeatherDisplay:10.37,2013-06-16 19:45:00,
2013-06-16 21:50:00,62.4,55.8,28.88,NE,55,0.0,0.0,79,0.00,CLR,FEW,0.00,0.0,WeatherDisplay:10.37,2013-06-16 19:50:00,
2013-06-16 21:55:00,62.4,55.8,28.88,NE,55,0.0,0.0,79,0.00,CLR,FEW,0.00,0.0,WeatherDisplay:10.37,2013-06-16 19:55:00,
2013-06-16 22:00:00,61.7,55.8,28.85,NE,55,0.0,0.0,81,0.00,CLR,FEW,0.00,0.0,WeatherDisplay:10.37,2013-06-16 20:00:00,
2013-06-16 22:05:00,61.5,55.6,28.85,NE,55,0.0,0.0,81,0.00,CLR,FEW,0.00,0.0,WeatherDisplay:10.37,2013-06-16 20:05:00,
2013-06-16 22:10:00,61.3,55.5,28.85,NE,55,0.0,0.0,81,0.00,CLR,FEW,0.00,0.0,WeatherDisplay:10.37,2013-06-16 20:10:00,
2013-06-16 22:15:00,61.2,55.3,28.85,NE,55,0.0,0.0,81,0.00,CLR,FEW,0.00,0.0,WeatherDisplay:10.37,2013-06-16 20:15:00,
2013-06-16 22:20:00,60.8,55.6,28.85,NE,55,0.0,0.0,83,0.00,CLR,FEW,0.00,0.0,WeatherDisplay:10.37,2013-06-16 20:20:00,
2013-06-16 22:25:00,60.8,55.6,28.85,NE,55,0.0,0.0,83,0.00,CLR,FEW,0.00,0.0,WeatherDisplay:10.37,2013-06-16 20:25:00,
2013-06-16 22:30:00,60.4,55.3,28.88,NE,55,0.0,0.0,83,0.00,CLR,FEW,0.00,0.0,WeatherDisplay:10.37,2013-06-16 20:30:00,
2013-06-16 22:35:00,60.4,55.3,28.88,NE,55,0.0,0.0,83,0.00,CLR,FEW,0.00,0.0,WeatherDisplay:10.37,2013-06-16 20:35:00,
2013-06-16 22:40:00,60.3,55.1,28.88,NE,55,0.0,0.0,83,0.00,CLR,FEW,0.00,0.0,WeatherDisplay:10.37,2013-06-16 20:40:00,
2013-06-16 22:45:00,59.9,55.1,28.88,NE,55,0.0,0.0,84,0.00,CLR,FEW,0.00,0.0,WeatherDisplay:10.37,2013-06-16 20:45:00,
2013-06-16 22:50:00,59.7,54.9,28.88,NE,55,0.0,0.0,84,0.00,CLR,FEW,0.00,0.0,WeatherDisplay:10.37,2013-06-16 20:50:00,
2013-06-16 22:55:00,59.7,54.9,28.88,NE,55,0.0,0.0,84,0.00,CLR,FEW,0.00,0.0,WeatherDisplay:10.37,2013-06-16 20:55:00,
2013-06-16 23:00:00,59.7,55.2,28.88,NE,55,0.0,0.0,85,0.00,CLR,FEW,0.00,0.0,WeatherDisplay:10.37,2013-06-16 21:00:00,
2013-06-16 23:05:00,59.4,54.5,28.88,NE,55,0.0,0.0,84,0.00,CLR,FEW,0.00,0.0,WeatherDisplay:10.37,2013-06-16 21:05:00,
2013-06-16 23:10:00,59.2,54.7,28.88,NE,55,0.0,0.0,85,0.00,CLR,FEW,0.00,0.0,WeatherDisplay:10.37,2013-06-16 21:10:00,
2013-06-16 23:15:00,59.0,54.8,28.88,NE,55,0.0,0.0,86,0.00,CLR,FEW,0.00,0.0,WeatherDisplay:10.37,2013-06-16 21:15:00,
2013-06-16 23:20:00,59.2,55.0,28.88,NE,55,0.0,0.0,86,0.00,CLR,FEW,0.00,0.0,WeatherDisplay:10.37,2013-06-16 21:20:00,
2013-06-16 23:25:00,59.2,55.0,28.88,NE,55,0.0,0.0,86,0.00,CLR,FEW,0.00,0.0,WeatherDisplay:10.37,2013-06-16 21:25:00,
2013-06-16 23:30:00,59.0,54.8,28.88,NE,55,0.0,0.0,86,0.00,CLR,FEW,0.00,0.0,WeatherDisplay:10.37,2013-06-16 21:30:00,
2013-06-16 23:35:00,59.4,55.2,28.88,NE,55,0.0,0.0,86,0.00,CLR,FEW,0.00,0.0,WeatherDisplay:10.37,2013-06-16 21:35:00,
2013-06-16 23:40:00,58.6,54.5,28.85,NE,55,0.0,0.0,86,0.00,CLR,FEW,0.00,0.0,WeatherDisplay:10.37,2013-06-16 21:40:00,
2013-06-16 23:45:00,58.6,54.5,28.85,NE,55,0.0,0.0,86,0.00,CLR,FEW,0.00,0.0,WeatherDisplay:10.37,2013-06-16 21:45:00,
2013-06-16 23:50:00,58.3,54.1,28.85,NE,55,0.0,0.0,86,0.00,CLR,FEW,0.00,0.0,WeatherDisplay:10.37,2013-06-16 21:50:00,
2013-06-16 23:55:00,58.3,54.1,28.85,NE,55,0.0,0.0,86,0.00,CLR,FEW,0.00,0.0,WeatherDisplay:10.37,2013-06-16 21:55:00,